Location: Buchberg
(46.9333°N, 15.8500°E)
Time: 09:58:39
(UTC+00:00)

Cosmos 1437 Rocket - Pass Details

Date: 14 July 2020
Orbit: 506 x 562 km, 81.2° (Epoch: 07 August)

Event Time Altitude Azimuth Distance (km) Brightness Sun altitude
Rises 00:30:07 0° 350° (N) 2,740 7.4 -18.6°
Reaches altitude 10° 00:32:19 10° 352° (N) 1,833 6.4 -18.5°
Maximum altitude 00:36:21 74° 78° (ENE) 569 2.9 -18.2°
Enters shadow 00:38:04 33° 157° (SSE) 928 3.6 -18.1°
